weather.gov     
National Weather Service

Regional Weather Roundup
NWS Homepage
This page is being discontinued on March 12, 2014.
The same data is available at this site. Please update your bookmarks.
Thank you, and we apologize for the inconvenience.
Please send an email to SR-SRH.Webmaster@noaa.gov with any concerns.


Current Version
Previous Version:    01  02  03  04  05  06  07  08  09  10  11  12  13  14  15  16  17  18  19  20  21  22  23  24  25  26  
[Printable]
398
ASUS41 KBGM 260610
RWRBGM
RWRBGM
BINGHAMTON REGIONAL WEATHER ROUNDUP
NATIONAL WEATHER SERVICE BINGHAMTON NY
200 AM EDT SAT JUL 26 2014

Note: "fair" indicates few or no clouds below 12,000 feet with no
significant weather and/or obstructions to visibility.

* = Station(s) that does not report precipitation, such as rain,
snow, etc, also no thunder or fog.

!NYZ009-015>018-022>025-036-037-044>046-055>057-062-260700
...CENTRAL NEW YORK...

CITY           SKY/WX    TMP DP  RH WIND       PRES   REMARKS
BINGHAMTON     PTCLDY    60  53  77 W5        30.02S
CORTLAND       FAIR      54  54 100 CALM      30.03S
DANSVILLE      PTCLDY    58  53  84 SE9       30.01F
ELMIRA         CLEAR     54  53  97 CALM      30.01S
ITHACA         CLEAR     55  54  97 SE3       30.02S
HAMILTON       MOCLDY    57  55  94 CALM      30.01R
MONTICELLO     MOCLDY    57  55  94 CALM      30.03F
NORWICH        CLEAR     54  54 100 CALM      30.01F
ONEONTA        CLEAR     59  52  77 CALM      30.02S
PENN YAN       PTCLDY    62  57  83 S5        30.00S
ROME           MOCLDY    57  55  93 CALM      29.98S
SIDNEY         CLEAR     55  55 100 CALM      30.01F FOG
SYRACUSE       PTCLDY    63  58  83 S3        29.97S
$$

!PAZ038>040-043-044-047-048-072-260700
...NORTHEAST PENNSYLVANIA...

CITY           SKY/WX    TMP DP  RH WIND       PRES   REMARKS
HAZLETON       MOCLDY    55  54  94 CALM      30.07S
SCRANTON       MOCLDY    61  52  72 CALM      30.02S
TOWANDA*       CLEAR     57  54  88 CALM      30.02S
$$
&&
KEY
WCI = WIND CHILL INDEX
VSB = VISIBILITY
HX  = HEAT INDEX
$$




U.S. Dept. of Commerce
NOAA National Weather Service
1325 East West Highway
Silver Spring, MD 20910
E-mail: w-nws.webmaster@noaa.gov
Page last modified: May 16, 2007
NATIONAL WEATHER SERVICE: for Safety, for Work, for Fun - FOR LIFE